sat.trackr.live / text

‹ back to catalog

STARLINK-35035

NORAD 65407 · 2025-192D

PAYLOAD ACTIVE UNKNOWN

§ Identity

Operator
Country
US
Launch date
2025-08-31
Launch site
AFETR
Launch vehicle
Mass (kg)
RCS (m²)

Purposes: comms

External: N2YO · Heavens-Above · Gunter

§ Orbital elements

Epoch: 2026-05-24T23:27:18.806400Z

Period
94.11 min
Inclination
53.1573°
Eccentricity
0.0001693
Mean motion
15.30203278 rev/d
Perigee alt
474.0 km
Apogee alt
476.4 km
Semi-major
6,853.3 km
B*
6.8703e-4
RAAN
238.0448°
Arg perigee
86.0111°
Mean anomaly
274.1083°
Rev number
4,107

§ Raw data

STARLINK-350351 65407U 25192D   26144.97730100  .00020046  00000+0  68703-3 0  99932 65407  53.1573 238.0448 0001693  86.0111 274.1083 15.30203278 41071

JSON: /api/v1/satellites/65407 · /tle

For live sub-satellite position, see the globe view (requires WebGL).

§ Visibility from observer

Set your observer location to see the next 7 days of passes ≥ 10°. The values pass through the URL so the page stays shareable.

No JS? Fill the form by hand. The geolocation button needs JavaScript.